Tracking 29933 objects as of 2-Dec-2024
HD Live streaming from Space Station
objects crossing your sky now

STARLINK-31440

Track STARLINK-31440 now!
10-day predictions
STARLINK-31440 is classified as:


NORAD ID: 58999
Int'l Code: 2024-036B
Perigee: 481.3 km
Apogee: 483.5 km
Inclination: 53.2 °
Period: 94.1 minutes
Semi major axis: 6853 km
RCS: Unknown
Launch date: February 23, 2024
Source: United States (US)
Launch site: AIR FORCE WESTERN TEST RANGE (AFWTR)
Your satellite tracking list
Your tracking list is empty




NASA's NSSDC Master Catalog

Two Line Element Set (TLE):
1 58999U 24036B   24336.97822700 -.00000271  00000-0  29969-5 0  9999
2 58999  53.1560  67.1208 0001550  87.3460 272.7718 15.30183412 44229
Source of the keplerian elements: AFSPC